N5MCB Weather Reports


time (UTC)temp
C
wind
direction
speed
KPH
gust
KPH
rain 1hr
cm
rain 24hr
cm
rain mn
cm
humidity
%
barometer
mb
20260505212105 31 98 0.0 0.0 0.00 0.00 0.00 54 1003.5
20260505211559 31 79 4.8 4.8 0.00 0.00 0.00 54 1003.6
20260505211053 31 141 3.2 4.8 0.00 0.00 0.00 54 1003.6
20260505210547 31 90 3.2 3.2 0.00 0.00 0.00 54 1003.6
20260505210040 31 101 0.0 1.6 0.00 0.00 0.00 55 1003.8
20260505205534 31 95 1.6 1.6 0.00 0.00 0.00 53 1003.8
20260505205246 31 102 3.2 3.2 0.00 0.00 0.00 53 1003.7
20260505204014 31 105 0.0 1.6 0.00 0.00 0.00 54 1003.8
20260505203505 31 335 4.8 9.7 0.00 0.00 0.00 55 1004.1
20260505203218 31 100 0.0 1.6 0.00 0.00 0.00 56 1004.2
20260505202453 30 97 1.6 1.6 0.00 0.00 0.00 55 1004.2
20260505201947 30 106 3.2 3.2 0.00 0.00 0.00 55 1004.2
20260505201656 31 99 3.2 4.8 0.00 0.00 0.00 54 1004.2
20260505201149 31 100 3.2 3.2 0.00 0.00 0.00 55 1004.2
20260505200907 30 85 1.6 1.6 0.00 0.00 0.00 58 1004.1
20260505195914 30 152 0.0 0.0 0.00 0.00 0.00 58 1004.2
20260505195408 30 169 3.2 4.8 0.00 0.00 0.00 57 1004.1
20260505194903 30 127 3.2 3.2 0.00 0.00 0.00 56 1004.1
20260505194357 30 83 3.2 6.4 0.00 0.00 0.00 56 1004.3
20260505194106 30 92 3.2 3.2 0.00 0.00 0.00 57 1004.4
20260505193339 30 154 1.6 3.2 0.00 0.00 0.00 57 1004.3
20260505192831 30 220 3.2 4.8 0.00 0.00 0.00 57 1004.1
20260505192323 30 73 3.2 4.8 0.00 0.00 0.00 59 1004.1
20260505192033 30 84 3.2 4.8 0.00 0.00 0.00 58 1004.4
20260505191308 30 134 1.6 3.2 0.00 0.00 0.00 58 1004.3
20260505190802 30 112 0.0 1.6 0.00 0.00 0.00 60 1004.2
20260505190255 29 98 1.6 3.2 0.00 0.00 0.00 60 1004.0
20260505185749 30 197 1.6 3.2 0.00 0.00 0.00 61 1004.2
20260505185243 30 82 0.0 0.0 0.00 0.00 0.00 60 1004.4
20260505184958 29 99 0.0 0.0 0.00 0.00 0.00 62 1004.2
20260505184716 28 140 0.0 1.6 0.00 0.00 0.00 62 1004.3
20260505183722 28 108 1.6 1.6 0.00 0.00 0.00 62 1004.1
20260505183214 29 217 3.2 4.8 0.00 0.00 0.00 62 1004.2
20260505182706 29 164 3.2 4.8 0.00 0.00 0.00 63 1004.3
20260505182422 28 94 0.0 1.6 0.00 0.00 0.00 64 1004.3
20260505181915 28 176 3.2 3.2 0.00 0.00 0.00 65 1004.4
20260505181148 28 201 1.6 3.2 0.00 0.00 0.00 65 1004.6
20260505180637 28 116 0.0 1.6 0.00 0.00 0.00 64 1004.3
20260505180131 28 107 1.6 4.8 0.00 0.00 0.00 63 1004.5
20260505175624 28 223 1.6 3.2 0.00 0.00 0.00 66 1004.4
20260505175118 28 124 3.2 4.8 0.00 0.00 0.00 65 1004.6
20260505175101 28 103 0.0 0.0 0.00 0.00 0.00 67 1004.5
20260505174324 28 143 1.6 3.2 0.00 0.00 0.00 66 1004.5
20260505173557 28 97 3.2 6.4 0.00 0.00 0.00 67 1004.4
20260505173047 27 164 0.0 3.2 0.00 0.00 0.00 68 1004.4
20260505172539 27 163 3.2 9.7 0.00 0.00 0.00 66 1004.4
20260505172251 27 209 4.8 9.7 0.00 0.00 0.00 68 1004.3
20260505171523 27 97 1.6 1.6 0.00 0.00 0.00 69 1004.3
20260505171017 27 115 3.2 3.2 0.00 0.00 0.00 68 1004.1
20260505170511 27 93 3.2 4.8 0.00 0.00 0.00 69 1004.4
20260505170005 27 110 0.0 0.0 0.00 0.00 0.00 69 1004.6
20260505165719 26 95 0.0 1.6 0.00 0.00 0.00 70 1004.4
20260505164952 26 128 1.6 3.2 0.00 0.00 0.00 70 1004.6
20260505164446 26 108 3.2 4.8 0.00 0.00 0.00 70 1004.6
20260505163940 26 89 1.6 1.6 0.00 0.00 0.00 71 1004.5
20260505163432 25 103 1.6 3.2 0.00 0.00 0.00 71 1004.6
20260505163409 25 91 1.6 3.2 0.00 0.00 0.00 72 1004.7
20260505162414 26 167 3.2 4.8 0.00 0.00 0.00 71 1004.5
20260505162125 26 109 0.0 1.6 0.00 0.00 0.00 71 1004.6
20260505161359 26 123 1.6 3.2 0.00 0.00 0.00 71 1004.4
20260505160853 26 74 4.8 11.3 0.00 0.00 0.00 72 1004.2
20260505160347 26 234 3.2 4.8 0.00 0.00 0.00 71 1004.5
20260505152757 25 207 1.6 3.2 0.00 0.00 0.00 74 1003.9
20260505152247 24 165 3.2 4.8 0.00 0.00 0.00 75 1004.0
20260505151739 24 163 3.2 4.8 0.00 0.00 0.00 75 1004.1
20260505151231 24 72 3.2 3.2 0.00 0.00 0.00 76 1004.2
20260505150723 24 292 6.4 9.7 0.00 0.00 0.00 76 1004.3
20260505150212 24 345 4.8 6.4 0.00 0.00 0.00 76 1004.2
20260505140250 23 185 1.6 1.6 0.00 0.00 0.00 79 1004.1
20260505124842 22 115 3.2 4.8 0.00 0.00 0.00 81 1004.0
20260505124336 22 151 1.6 3.2 0.00 0.00 0.00 81 1003.8
20260505124051 22 102 0.0 1.6 0.00 0.00 0.00 81 1003.8
20260505123543 22 115 0.0 0.0 0.00 0.00 0.00 81 1003.5
20260505122814 22 64 3.2 4.8 0.00 0.00 0.00 81 1003.4
20260505122305 22 94 1.6 3.2 0.00 0.00 0.00 81 1003.5
20260505122243 22 114 3.2 4.8 0.00 0.00 0.00 81 1003.4
20260505121506 22 62 1.6 1.6 0.00 0.00 0.00 81 1003.4
20260505120740 22 127 3.2 3.2 0.00 0.00 0.00 81 1003.5
20260505120234 22 102 0.0 1.6 0.00 0.00 0.00 81 1003.5
20260505115728 22 34 1.6 1.6 0.00 0.00 0.00 81 1003.4
20260505115222 22 115 1.6 1.6 0.00 0.00 0.00 81 1003.3
20260505114939 22 179 3.2 3.2 0.00 0.00 0.00 81 1003.5
20260505114211 22 153 3.2 3.2 0.00 0.00 0.00 80 1003.6
20260505113705 22 96 3.2 3.2 0.00 0.00 0.00 81 1003.3
20260505113157 22 33 3.2 3.2 0.00 0.00 0.00 81 1003.5
20260505112647 22 112 1.6 3.2 0.00 0.00 0.00 81 1003.4
20260505112139 21 54 3.2 4.8 0.00 0.00 0.00 82 1003.0
20260505111631 21 47 1.6 1.6 0.00 0.00 0.00 83 1003.1
20260505111122 21 97 3.2 4.8 0.00 0.00 0.00 83 1003.1
20260505110615 21 105 1.6 3.2 0.00 0.00 0.00 83 1003.1
20260505110109 21 139 1.6 1.6 0.00 0.00 0.00 83 1003.2
20260505102005 22 157 0.0 1.6 0.00 0.00 0.00 82 1003.1
20260505101942 22 120 1.6 3.2 0.00 0.00 0.00 82 1003.2
20260505100947 22 103 1.6 3.2 0.00 0.00 0.00 82 1003.1
20260505100438 22 159 3.2 6.4 0.00 0.00 0.00 82 1002.9
20260505095930 22 101 1.6 3.2 0.00 0.00 0.00 82 1003.3
20260505095423 21 216 4.8 4.8 0.00 0.00 0.00 82 1003.3
20260505095358 21 147 3.2 4.8 0.00 0.00 0.00 82 1003.3
20260505094404 21 145 4.8 14.5 0.00 0.00 0.00 82 1003.3
20260505093855 21 266 1.6 4.8 0.00 0.00 0.00 82 1003.5
20260505093347 21 98 0.0 1.6 0.00 0.00 0.00 82 1003.4
20260505093100 21 155 3.2 3.2 0.00 0.00 0.00 82 1003.4
20260505092331 21 127 1.6 3.2 0.00 0.00 0.00 82 1003.6
20260505091823 21 142 3.2 4.8 0.00 0.00 0.00 83 1003.4
20260505090805 21 129 1.6 3.2 0.00 0.00 0.00 83 1003.7
20260505090256 21 100 3.2 3.2 0.00 0.00 0.00 83 1003.7
20260505090008 21 122 0.0 1.6 0.00 0.00 0.00 83 1003.6
20260505085726 21 136 1.6 1.6 0.00 0.00 0.00 83 1003.8
20260505084954 21 105 0.0 0.0 0.00 0.00 0.00 83 1003.5
20260505084226 21 99 3.2 4.8 0.00 0.00 0.00 82 1003.2
20260505083720 21 39 3.2 3.2 0.00 0.00 0.00 82 1003.5
20260505083214 21 149 4.8 11.3 0.00 0.00 0.00 82 1003.6
20260505082704 21 90 3.2 3.2 0.00 0.00 0.00 82 1003.4
20260505082156 21 116 3.2 3.2 0.00 0.00 0.00 82 1003.6
20260505081648 21 89 3.2 9.7 0.00 0.00 0.00 81 1003.6
20260505081140 21 108 1.6 1.6 0.00 0.00 0.00 81 1003.5
20260505080630 21 104 1.6 1.6 0.00 0.00 0.00 81 1003.7
20260505080121 22 112 1.6 3.2 0.00 0.00 0.00 81 1003.6
20260505075613 22 190 3.2 4.8 0.00 0.00 0.00 80 1003.8
20260505075103 22 161 6.4 12.9 0.00 0.00 0.00 80 1003.8
20260505074556 22 120 1.6 1.6 0.00 0.00 0.00 80 1004.1
20260505074047 22 128 0.0 1.6 0.00 0.00 0.00 79 1004.1
20260505074026 22 264 1.6 3.2 0.00 0.00 0.00 79 1004.2
20260505073249 22 119 1.6 1.6 0.00 0.00 0.00 79 1004.2
20260505072522 22 207 1.6 1.6 0.00 0.00 0.00 79 1004.3
20260505072014 22 141 6.4 14.5 0.00 0.00 0.00 79 1004.3
20260505071504 22 97 1.6 1.6 0.00 0.00 0.00 78 1004.4
20260505070956 22 352 4.8 6.4 0.00 0.00 0.00 78 1004.3
20260505070709 22 111 1.6 1.6 0.00 0.00 0.00 78 1004.5
20260505065947 22 106 3.2 3.2 0.00 0.00 0.00 78 1004.5
20260505065439 22 311 1.6 1.6 0.00 0.00 0.00 77 1004.5
20260505064929 22 125 0.0 1.6 0.00 0.00 0.00 77 1004.7
20260505064641 22 278 1.6 3.2 0.00 0.00 0.00 77 1004.9
20260505063912 22 99 1.6 1.6 0.00 0.00 0.00 77 1004.7
20260505063406 22 202 1.6 1.6 0.00 0.00 0.00 77 1004.9
20260505062856 22 109 0.0 1.6 0.00 0.00 0.00 76 1004.8
20260505062348 22 222 0.0 1.6 0.00 0.00 0.00 76 1004.9
20260505061840 22 113 1.6 1.6 0.00 0.00 0.00 76 1004.8
20260505061330 22 121 1.6 3.2 0.00 0.00 0.00 75 1004.9
20260505061307 22 88 3.2 4.8 0.00 0.00 0.00 75 1004.8
20260505060313 22 95 3.2 3.2 0.00 0.00 0.00 75 1004.7
20260505060249 22 131 3.2 6.4 0.00 0.00 0.00 75 1004.7
20260505054748 22 231 0.0 1.6 0.00 0.00 0.00 74 1005.0
20260505054502 22 98 1.6 1.6 0.00 0.00 0.00 74 1005.1
20260505053947 22 149 3.2 3.2 0.00 0.00 0.00 74 1005.0
20260505053709 22 115 3.2 4.8 0.00 0.00 0.00 73 1005.0
20260505052714 22 105 1.6 3.2 0.00 0.00 0.00 73 1005.4
20260505052205 22 142 1.6 1.6 0.00 0.00 0.00 73 1005.3
20260505051656 22 84 1.6 3.2 0.00 0.00 0.00 73 1005.4
20260505051148 22 90 6.4 11.3 0.00 0.00 0.00 72 1005.3
20260505050859 23 104 6.4 9.7 0.00 0.00 0.00 72 1005.4
20260505050348 23 126 1.6 1.6 0.00 0.00 0.00 72 1005.5
20260505041735 23 229 1.6 1.6 0.00 0.00 0.00 71 1005.4
20260505041004 23 103 4.8 6.4 0.00 0.00 0.00 71 1005.6
20260505040455 23 181 8.0 12.9 0.00 0.00 0.00 70 1005.7
20260505040209 23 164 3.2 6.4 0.00 0.00 0.00 71 1005.5
20260505035439 23 168 3.2 4.8 0.00 0.00 0.00 71 1005.4
20260505034929 23 108 0.0 1.6 0.00 0.00 0.00 70 1005.4
20260505034422 23 109 4.8 11.3 0.00 0.00 0.00 70 1005.5
20260505033914 23 99 1.6 4.8 0.00 0.00 0.00 70 1005.5
20260505033402 23 116 1.6 9.7 0.00 0.00 0.00 70 1005.6
20260505032856 23 115 6.4 11.3 0.00 0.00 0.00 70 1005.6
20260505032348 23 95 3.2 3.2 0.00 0.00 0.00 69 1005.8
20260505031839 23 174 3.2 4.8 0.00 0.00 0.00 69 1005.5
20260505031330 23 133 0.0 1.6 0.00 0.00 0.00 69 1005.4
20260505030823 23 105 0.0 1.6 0.00 0.00 0.00 69 1005.7
20260505030313 23 125 1.6 1.6 0.00 0.00 0.00 69 1005.5
20260505025803 23 89 1.6 3.2 0.00 0.00 0.00 69 1005.8
20260505025255 23 157 4.8 6.4 0.00 0.00 0.00 69 1005.5
20260505024748 23 84 1.6 3.2 0.00 0.00 0.00 69 1005.5
20260505024240 23 135 4.8 6.4 0.00 0.00 0.00 68 1005.7
20260505023220 23 152 6.4 12.9 0.00 0.00 0.00 67 1005.5
20260505022714 23 129 3.2 9.7 0.00 0.00 0.00 67 1005.8
20260505022204 23 142 0.0 0.0 0.00 0.00 0.00 68 1005.7
20260505021409 23 107 6.4 9.7 0.00 0.00 0.00 67 1005.7
20260505020858 23 307 1.6 4.8 0.00 0.00 0.00 67 1005.6
20260505020129 23 125 0.0 0.0 0.00 0.00 0.00 66 1005.4
20260505015844 23 72 0.0 1.6 0.00 0.00 0.00 66 1005.7
20260505015113 24 111 3.2 4.8 0.00 0.00 0.00 66 1005.5
20260505014604 24 88 1.6 1.6 0.00 0.00 0.00 66 1005.7
20260505014543 24 100 6.4 12.9 0.00 0.00 0.00 66 1005.6
20260505013807 24 102 1.6 1.6 0.00 0.00 0.00 65 1005.7
20260505013038 24 101 3.2 3.2 0.00 0.00 0.00 65 1005.5
20260505012530 24 101 1.6 3.2 0.00 0.00 0.00 65 1005.4
20260505012241 24 115 1.6 3.2 0.00 0.00 0.00 65 1005.8
20260505011959 24 197 1.6 1.6 0.00 0.00 0.00 64 1005.6
20260505011003 24 123 6.4 9.7 0.00 0.00 0.00 64 1005.4
20260505010455 24 106 1.6 1.6 0.00 0.00 0.00 64 1005.5
20260505010433 24 153 1.6 3.2 0.00 0.00 0.00 63 1005.3
20260505005701 24 111 1.6 3.2 0.00 0.00 0.00 63 1005.5
20260505004929 25 121 3.2 4.8 0.00 0.00 0.00 63 1005.4
20260505004422 25 108 0.0 0.0 0.00 0.00 0.00 62 1005.5
20260505003914 25 74 3.2 4.8 0.00 0.00 0.00 62 1005.5
20260505003402 25 97 1.6 1.6 0.00 0.00 0.00 61 1005.3
20260505002856 25 280 3.2 6.4 0.00 0.00 0.00 61 1005.5
20260505002609 25 92 3.2 4.8 0.00 0.00 0.00 61 1005.4
20260505002058 25 96 1.6 3.2 0.00 0.00 0.00 61 1005.6
20260505001330 25 89 1.6 4.8 0.00 0.00 0.00 62 1005.6
20260505000821 25 150 1.6 6.4 0.00 0.00 0.00 61 1005.6
20260505000313 25 98 1.6 3.2 0.00 0.00 0.00 60 1005.4
20260505000025 25 194 3.2 6.4 0.00 0.00 0.00 60 1005.6
20260504235256 25 174 3.2 4.8 0.00 0.00 0.00 60 1005.5
20260504235007 25 116 4.8 6.4 0.00 0.00 0.00 59 1005.7
20260504234240 25 112 6.4 12.9 0.00 0.00 0.00 59 1005.7
20260504233730 25 94 3.2 4.8 0.00 0.00 0.00 60 1005.8
20260504233219 25 160 1.6 3.2 0.00 0.00 0.00 60 1005.8
20260504232934 25 148 9.7 14.5 0.00 0.00 0.00 59 1005.6
20260504232202 26 102 1.6 3.2 0.00 0.00 0.00 59 1005.7
20260504231655 26 94 1.6 3.2 0.00 0.00 0.00 59 1005.8
20260504230639 26 104 4.8 11.3 0.00 0.00 0.00 58 1006.0
20260504230129 26 252 4.8 6.4 0.00 0.00 0.00 58 1006.0
20260504225113 26 166 3.2 4.8 0.00 0.00 0.00 57 1006.3
20260504224604 26 142 4.8 11.3 0.00 0.00 0.00 57 1006.1
20260504224056 26 90 1.6 1.6 0.00 0.00 0.00 57 1006.3
20260504223810 26 96 1.6 3.2 0.00 0.00 0.00 57 1006.1
20260504222751 26 113 4.8 6.4 0.00 0.00 0.00 58 1006.0
20260504222021 26 151 6.4 12.9 0.00 0.00 0.00 56 1006.0
20260504221514 26 149 1.6 3.2 0.00 0.00 0.00 56 1006.0
20260504221003 27 113 6.4 14.5 0.00 0.00 0.00 55 1006.3
20260504220940 27 123 11.3 16.1 0.00 0.00 0.00 55 1006.3
20260504215947 27 83 1.6 3.2 0.00 0.00 0.00 56 1006.3
20260504214929 26 94 3.2 3.2 0.00 0.00 0.00 56 1006.5
20260504213914 26 87 3.2 4.8 0.00 0.00 0.00 56 1006.7
20260504213403 27 187 1.6 1.6 0.00 0.00 0.00 55 1007.0
20260504213341 26 93 3.2 3.2 0.00 0.00 0.00 55 1007.1